Probability
0 1 0 0 0 0 0 0 0 0 0 0 0 0 0 0 0 1 3 4 5 4 3 3 4 5 4 2 0 0 0 0 0 0 0 0 0 0 1 2 3 2 1 1 1 0 0 0 0
1 1 1 0 0 0 0 0 0 0 0 0 0 0 0 0 1 2 3 4 5 4 3 3 4 5 4 2 1 0 0 0 0 0 0 0 1 1 2 3 4 3 2 2 2 1 0 0 0
1 2 1 0 0 0 0 0 0 0 0 0 0 0 0 0 1 3 4 5 5 4 3 3 3 4 4 2 1 0 0 0 0 0 0 1 2 3 3 4 5 5 4 3 3 1 0 0 0
1 1 1 0 0 0 0 0 0 0 0 0 0 0 0 1 2 3 4 5 6 4 3 3 3 4 3 2 1 1 0 0 0 0 0 1 3 4 4 4 5 5 5 4 3 2 1 0 0
0 0 0 0 0 0 0 0 0 0 0 0 0 0 0 1 2 3 3 4 6 5 4 3 4 4 3 2 2 2 1 0 0 1 1 1 3 3 3 2 2 3 4 3 3 3 2 1 1
1 0 0 0 0 0 0 0 0 0 0 0 0 0 0 1 1 2 3 4 6 6 6 5 4 4 3 2 1 2 1 0 0 1 1 2 2 2 1 1 0 1 3 3 3 3 3 3 2
1 1 0 0 0 0 0 0 0 0 0 0 0 0 0 0 1 1 3 5 7 9 9 8 5 4 3 1 0 1 1 0 0 0 1 1 1 1 0 0 0 1 2 3 3 3 3 3 3
1 1 0 0 0 0 0 0 0 0 0 0 0 0 0 0 0 1 3 6 9 11 11 10 7 5 3 1 0 0 0 0 0 0 0 0 0 0 0 0 0 0 1 2 3 3 3 3 3
0 0 0 0 0 0 0 0 0 0 0 0 0 0 0 0 0 1 3 6 9 12 12 11 9 7 5 4 1 0 0 0 0 0 0 0 0 0 0 0 0 0 0 1 2 3 3 3 3
0 0 0 0 0 0 0 0 0 0 0 0 0 0 0 0 0 1 2 4 7 11 12 12 10 9 8 6 4 2 0 0 0 0 0 0 0 0 0 0 0 0 0 0 1 2 3 3 3
0 0 0 0 0 0 0 0 0 0 0 0 0 0 0 1 0 0 1 2 5 8 11 12 11 10 8 7 6 4 2 2 2 1 0 0 0 0 0 0 0 0 0 0 0 1 2 3 3
0 0 0 0 0 0 0 0 0 0 0 0 0 0 0 0 0 0 0 1 3 6 10 12 11 10 8 7 6 6 5 4 3 1 0 0 0 0 0 0 0 0 0 0 0 1 2 2 2
0 0 0 0 0 0 0 0 0 0 0 0 0 0 0 0 0 0 0 1 2 4 7 9 9 9 8 7 6 5 5 5 4 1 0 0 0 0 0 0 0 0 0 0 0 1 2 3 2
0 0 0 0 0 0 0 0 0 0 0 1 1 0 0 0 0 0 0 0 1 3 5 6 6 7 7 6 5 4 5 5 3 1 1 0 0 0 0 0 0 0 0 0 0 1 2 3 2
0 0 0 0 0 0 0 0 0 0 1 1 0 0 0 0 0 0 0 0 1 3 5 6 6 6 6 5 4 4 5 5 4 2 1 0 0 0 0 0 0 0 0 0 0 0 2 3 3
0 0 0 0 0 0 0 0 0 1 1 0 0 0 0 0 0 0 0 0 1 3 6 8 8 7 5 4 3 2 3 3 3 2 1 0 0 0 0 0 0 0 0 0 0 1 2 3 3
0 0 0 0 0 0 0 0 1 1 1 1 1 1 0 0 0 0 0 0 0 2 5 7 7 6 4 3 2 1 1 1 2 2 1 0 0 0 0 0 0 0 0 0 0 1 2 3 3
0 0 0 0 0 0 0 0 1 2 3 2 2 1 0 0 0 0 0 0 1 2 4 4 4 3 2 1 1 0 0 1 2 2 1 1 0 0 0 0 0 0 0 0 0 0 1 2 3
0 0 0 0 0 0 0 0 1 2 3 3 3 2 0 0 0 0 0 0 1 3 4 3 2 1 0 0 0 0 0 1 2 3 3 2 1 0 0 0 0 0 0 0 0 0 0 1 2
0 0 0 0 0 0 0 0 1 2 3 3 3 2 1 0 0 0 0 0 1 2 4 4 3 1 1 0 0 0 0 0 2 3 3 2 1 0 0 0 0 0 0 0 0 0 0 0 1
0 0 0 0 0 0 0 0 1 2 2 3 3 2 1 0 0 0 0 0 0 1 3 3 2 2 1 1 0 0 0 0 1 2 2 1 0 0 0 0 0 0 0 0 0 0 0 0 0
0 0 0 0 0 0 0 0 0 1 1 1 2 2 1 0 0 0 0 0 0 0 1 1 1 1 1 1 0 0 0 0 1 1 1 0 0 0 0 0 0 0 0 0 0 0 0 0 0
0 0 0 0 0 0 0 0 0 0 0 0 1 2 2 1 0 0 0 0 0 0 0 0 0 0 0 0 0 0 0 0 0 0 0 0 0 0 0 0 0 0 0 0 0 0 0 0 0
0 0 0 0 0 0 0 0 0 0 0 0 0 1 2 2 1 0 1 1 0 1 1 0 0 0 0 0 0 0 0 0 0 0 0 0 0 0 0 0 0 0 0 0 0 0 0 0 0
0 0 0 0 0 0 0 0 0 0 0 0 0 0 1 2 2 2 2 2 2 2 2 1 0 0 0 0 0 0 0 0 0 0 0 0 0 0 0 0 0 0 0 0 0 0 0 0 0
0 0 0 0 0 0 0 0 0 0 0 0 0 0 0 1 2 3 3 3 3 3 3 1 0 0 0 0 0 0 0 0 0 0 0 0 0 0 0 0 0 0 0 0 0 0 0 0 0
0 0 0 0 0 0 0 0 0 0 0 0 0 0 0 0 1 2 3 3 3 3 3 2 1 0 0 0 0 0 0 0 0 0 0 0 0 0 1 1 0 0 0 0 0 0 0 0 0
0 0 0 0 0 0 0 0 0 0 0 0 0 0 0 0 0 1 2 3 3 3 3 2 1 0 0 0 0 0 0 0 0 0 0 0 0 1 2 2 1 1 0 0 0 0 0 0 0
0 0 0 0 0 0 0 0 0 0 0 0 0 0 0 0 0 0 1 3 3 3 3 2 1 0 0 0 0 0 0 0 0 0 0 0 0 1 2 3 3 2 1 0 0 0 0 0 0
0 0 0 0 0 0 0 0 0 0 0 0 0 0 0 0 0 0 1 2 3 3 3 1 0 0 0 0 0 0 0 0 0 0 0 0 0 0 1 3 3 2 1 0 0 0 0 0 0
Wind_Speed
11 9 6 3 4 5 8 5 2 2 1 3 4 3 3 4 4 5 4 5 7 8 8 6 6 8 9 10 9 9 9 9 9 9 9 9 9 9 9 9 9 9 8 9 10 11 11 11 11
9 7 4 3 4 6 6 4 4 2 4 3 3 2 2 5 6 7 4 4 6 8 7 6 7 8 9 9 9 9 9 9 9 9 9 9 9 9 9 8 8 8 9 9 10 10 11 11 11
8 7 4 4 5 6 3 3 4 5 4 2 1 2 3 4 5 4 4 5 6 6 7 6 8 9 9 9 9 9 9 9 9 9 9 8 8 8 8 8 8 9 9 10 10 10 10 10 10
5 4 4 5 8 5 2 3 5 5 3 2 2 3 5 6 4 5 5 5 6 6 6 7 8 9 9 9 9 9 9 8 8 8 8 8 7 8 7 7 8 9 9 10 10 10 9 9 8
4 3 5 6 8 4 2 1 2 2 3 4 3 2 5 5 6 6 5 5 5 5 5 7 8 8 8 8 8 8 8 8 8 7 8 7 7 7 8 7 8 8 9 9 9 9 9 9 8
3 3 5 7 7 4 2 1 1 1 1 1 2 2 4 4 5 4 4 4 5 5 6 7 7 8 8 7 7 7 7 8 7 7 7 7 7 8 8 8 7 8 8 8 8 8 8 8 8
3 3 6 7 5 3 1 1 1 1 1 0 0 2 5 4 4 4 4 4 5 5 5 5 5 5 6 7 7 7 7 7 8 7 7 7 7 8 8 7 7 7 7 8 7 7 7 7 7
3 3 6 6 5 3 1 1 2 2 1 3 3 1 3 4 4 4 4 4 4 5 5 4 4 4 4 4 6 6 6 7 7 7 7 6 6 7 7 6 6 6 7 7 6 6 6 6 6
4 4 6 4 3 1 2 1 2 3 2 2 3 4 5 7 5 4 4 3 4 4 3 3 3 3 3 4 5 5 5 6 6 5 5 4 2 3 4 5 6 6 6 6 5 5 5 4 4
2 4 5 3 3 1 1 1 0 1 0 0 2 4 5 6 5 4 3 4 4 3 3 3 3 3 3 3 3 2 3 3 3 2 2 1 2 2 3 5 5 5 5 5 5 4 3 2 1
2 4 2 3 4 4 2 1 1 2 3 2 1 3 5 4 4 4 3 3 3 3 3 3 3 3 3 2 2 2 2 2 2 2 2 1 1 1 2 2 2 2 3 2 2 2 1 2 1
3 3 3 2 4 4 2 2 2 3 3 2 2 2 4 5 4 4 4 3 3 3 3 3 3 3 3 2 2 2 2 2 2 2 2 1 1 1 1 1 1 1 1 1 1 1 1 2 2
5 4 3 1 1 2 3 4 4 5 3 0 0 2 3 3 4 4 3 3 3 3 3 3 3 3 3 2 2 2 2 2 2 2 1 2 1 1 1 1 1 1 1 1 1 1 1 1 1
1 2 3 3 3 3 3 4 4 6 3 3 3 3 3 3 3 3 3 3 4 4 4 3 3 3 3 3 2 2 2 2 2 2 1 2 1 1 1 1 1 1 1 1 1 1 1 1 1
1 3 4 4 4 3 2 6 7 6 4 4 4 3 4 4 3 3 3 3 3 4 4 4 3 3 3 3 2 2 2 2 2 2 2 1 1 1 1 1 1 1 1 1 1 1 1 1 1
3 3 4 3 5 3 3 8 4 3 5 5 4 3 3 4 4 4 3 3 3 3 4 4 3 3 3 3 2 2 1 2 2 2 2 2 1 1 1 1 1 1 1 1 1 1 1 1 1
5 4 5 3 5 3 5 6 3 2 4 4 4 4 4 4 4 4 4 3 3 3 4 4 3 3 3 3 2 2 2 2 2 2 2 2 2 1 1 1 1 1 1 0 1 1 1 1 1
3 4 4 4 4 3 5 7 5 4 4 4 4 4 4 4 4 3 4 4 3 3 3 3 3 3 3 2 2 2 2 2 2 2 2 2 2 1 1 2 1 1 1 0 1 1 1 1 1
5 5 6 5 2 3 7 10 8 4 5 5 5 4 4 3 3 3 3 4 4 3 3 3 3 3 3 3 2 2 2 2 2 1 2 2 2 2 1 1 1 1 1 1 1 1 2 1 1
6 8 7 4 1 3 6 11 9 6 7 6 6 5 3 2 2 3 3 3 3 3 3 3 3 3 2 2 2 2 2 2 2 2 2 2 2 2 1 1 1 1 1 1 1 1 1 0 0
7 7 6 4 4 5 6 8 6 4 4 3 3 2 2 1 3 3 3 3 3 2 3 2 2 3 3 2 2 2 2 1 1 2 2 2 2 2 1 1 1 1 1 1 1 1 2 2 1
6 2 3 3 2 3 2 6 4 4 3 4 3 2 1 1 2 2 3 3 2 2 2 2 2 2 2 2 3 3 2 2 2 2 2 2 2 2 2 1 1 1 1 1 1 1 0 2 2
2 3 3 4 4 4 4 5 6 3 4 4 3 2 1 1 1 2 2 2 2 2 2 2 2 2 2 2 2 2 2 2 2 2 3 2 2 2 1 1 1 1 1 1 1 1 1 1 2
1 1 2 3 2 5 6 5 7 3 3 2 3 2 2 2 2 2 3 3 3 3 2 2 2 2 2 1 1 2 2 2 3 3 2 2 1 1 1 1 1 1 1 1 1 1 2 1 2
1 1 0 1 3 6 4 5 7 0 2 3 4 3 2 2 2 2 3 3 3 2 2 2 2 2 1 1 1 1 2 3 3 3 2 2 1 1 1 0 1 1 1 1 1 1 1 2 2
4 3 3 3 3 3 1 6 4 1 3 3 3 3 2 2 1 1 2 2 2 2 2 1 2 2 2 1 1 1 1 1 2 2 2 2 1 1 1 1 0 0 1 1 1 1 1 1 2
2 4 2 2 2 3 5 5 3 2 2 2 2 2 1 1 1 1 1 2 1 1 1 1 1 1 2 1 1 1 1 1 1 2 2 1 1 1 1 1 0 0 0 1 1 1 1 2 2
2 1 1 2 3 5 6 5 4 2 2 1 1 1 0 1 1 1 1 1 1 1 1 1 1 1 1 1 1 1 1 1 1 1 2 1 1 1 1 1 1 1 1 0 0 1 1 2 2
4 3 3 3 3 3 4 5 1 3 3 3 2 0 1 1 1 1 1 1 1 1 1 1 0 0 0 1 1 1 1 0 1 1 1 1 1 1 1 1 1 1 1 1 1 1 2 2 2
2 4 5 4 5 4 4 7 1 3 3 2 0 0 1 1 1 1 1 2 2 2 1 1 1 1 1 1 1 1 1 1 1 1 1 1 1 1 1 1 1 1 1 1 1 2 2 3 3
Wind_Direction
298 272 257 251 237 232 238 226 196 141 90 44 27 5 35 33 35 98 104 81 100 116 120 125 111 114 109 104 99 93 92 89 87 85 84 83 80 77 76 76 75 74 77 83 85 82 81 80 77
296 283 258 237 238 237 234 202 183 123 87 70 42 13 42 71 71 96 101 86 103 116 123 127 112 111 108 105 102 98 96 91 89 86 82 82 81 79 75 75 74 74 79 82 84 85 83 78 75
280 265 253 234 236 242 247 103 99 87 88 104 84 26 31 61 82 90 94 101 103 112 120 122 114 113 110 106 103 101 98 93 91 89 85 80 79 78 74 73 75 75 79 82 82 84 83 80 74
270 240 244 246 247 259 295 73 100 125 134 126 124 102 85 49 56 82 101 105 106 104 112 120 115 115 113 110 106 102 100 97 95 93 90 84 78 76 75 73 78 79 77 78 79 82 81 79 74
244 248 237 243 248 249 285 40 119 157 165 160 156 125 96 71 78 90 103 105 107 106 106 118 110 113 110 107 103 100 100 97 94 95 93 88 81 77 74 77 78 81 79 79 78 78 76 74 70
252 241 237 237 236 228 221 188 180 204 189 141 145 154 102 102 94 96 100 104 106 110 111 120 104 106 108 104 101 100 97 94 89 86 91 89 87 81 75 73 75 80 82 82 80 78 75 70 64
262 259 252 255 251 238 196 101 236 223 230 143 313 143 124 115 100 105 103 102 104 108 113 122 126 116 106 103 100 98 95 91 87 81 84 82 81 80 75 69 71 77 85 86 83 81 76 72 64
280 278 256 250 252 255 80 68 22 356 14 18 16 107 123 120 107 113 112 108 103 99 105 121 129 127 124 117 102 98 97 96 93 86 80 77 79 81 75 68 67 75 81 87 86 83 79 75 67
282 255 254 260 263 223 108 68 29 26 50 34 47 53 80 109 110 115 121 119 108 102 106 121 125 123 126 127 122 116 107 100 101 96 89 88 81 83 78 72 69 71 76 79 89 91 87 76 68
249 247 259 321 334 359 77 44 0 126 264 39 91 85 107 115 123 134 146 150 141 136 129 127 131 125 123 128 128 135 128 120 115 105 100 90 75 73 81 80 75 70 75 77 75 93 97 74 74
241 250 292 336 358 7 3 332 297 247 250 246 205 148 142 136 147 162 167 164 158 151 142 132 136 131 126 125 134 136 132 134 126 117 112 92 85 82 86 93 85 79 79 80 76 63 66 61 50
246 275 301 330 13 358 319 286 278 271 269 350 7 145 150 161 176 183 179 168 155 151 157 143 138 134 128 128 132 132 129 137 130 129 123 108 97 89 92 102 105 101 86 87 77 64 67 68 55
237 256 283 316 10 311 308 277 271 260 249 225 124 153 162 178 182 183 175 161 153 156 161 156 151 150 142 134 133 125 133 140 140 135 130 110 112 121 123 120 104 99 86 81 74 72 77 77 69
287 262 260 255 245 246 261 268 253 251 212 204 203 193 189 205 197 181 179 178 173 170 168 158 156 155 152 146 143 137 138 135 129 125 118 116 111 111 109 107 102 105 108 99 99 89 97 93 87
272 273 257 233 226 233 264 266 236 224 199 207 214 203 197 205 200 195 187 184 182 173 164 159 157 152 153 154 153 146 141 131 120 125 132 117 109 123 111 106 102 111 111 104 94 78 102 114 105
228 240 245 209 196 192 210 256 237 184 200 213 212 202 203 207 203 202 191 177 172 161 159 157 150 151 155 148 144 133 129 126 124 123 127 115 100 107 120 105 111 117 93 95 115 107 91 100 105
210 231 240 224 184 184 216 253 230 209 212 216 214 206 209 207 207 201 187 173 169 162 156 155 150 154 155 150 145 130 126 119 120 120 114 113 107 88 100 121 132 128 108 107 130 99 111 116 101
226 235 250 240 193 214 243 258 246 222 221 233 230 217 217 209 211 189 177 166 155 146 143 148 151 156 150 146 145 136 131 123 111 110 112 112 105 91 86 92 89 109 117 115 120 115 95 136 155
291 275 271 271 220 237 248 263 262 225 226 235 236 231 220 219 196 170 157 146 137 135 141 153 151 156 154 160 165 163 163 141 115 93 93 102 97 88 85 90 101 91 106 147 134 123 116 98 111
268 274 277 290 329 276 274 271 265 231 223 224 225 226 215 204 180 156 134 129 136 147 155 153 157 160 162 165 161 148 139 129 124 119 102 92 96 94 98 101 120 121 112 101 107 126 131 127 133
253 258 273 287 311 274 284 279 238 226 218 224 224 216 199 171 164 150 140 141 138 151 155 156 167 159 164 152 126 115 107 109 131 147 139 117 105 105 103 124 137 143 140 165 179 170 161 176 202
259 294 297 302 295 270 244 286 247 210 204 215 216 193 173 181 145 140 140 137 147 152 137 138 144 135 145 137 140 149 158 168 180 164 145 138 130 120 118 138 149 155 151 161 191 196 200 169 193
279 346 301 277 262 276 238 257 277 186 228 221 199 179 150 108 122 139 137 132 111 103 112 123 123 115 115 128 142 160 154 142 128 120 133 136 136 132 136 151 152 161 167 169 177 180 193 192 195
292 317 277 261 244 258 216 218 276 208 214 180 164 157 133 114 101 98 103 99 86 80 86 104 109 100 106 131 140 147 141 128 127 125 132 136 134 139 147 141 149 169 176 195 197 201 203 213 210
212 139 293 251 225 245 180 211 256 350 95 118 143 149 132 119 117 112 105 112 110 101 91 102 118 113 105 115 124 132 140 146 150 149 151 144 138 144 163 152 177 186 198 207 194 195 213 210 214
216 203 192 230 247 283 208 232 249 94 70 69 88 100 100 118 124 119 119 119 126 126 124 124 131 127 128 133 116 107 137 163 165 153 148 163 172 165 161 162 190 194 187 208 198 204 215 219 222
209 221 249 298 303 280 250 248 264 85 56 63 70 81 110 127 138 142 119 112 113 123 136 153 151 137 147 154 139 136 153 154 154 148 141 149 134 133 152 157 160 233 216 211 198 214 231 230 231
284 284 155 196 229 251 257 239 238 199 216 191 174 196 156 104 103 128 134 133 127 131 100 89 128 159 161 152 166 167 170 150 134 138 141 135 127 120 157 162 159 196 225 224 214 253 239 234 247
183 201 216 221 235 237 267 265 182 152 163 174 192 174 125 122 126 126 134 133 125 105 111 108 100 67 167 169 169 157 156 126 130 142 152 155 146 154 173 173 184 220 225 229 229 257 254 248 255
214 209 188 197 234 229 257 267 37 114 110 99 135 201 187 158 144 121 138 129 134 141 147 163 176 194 227 195 157 156 146 125 145 188 181 146 156 175 189 189 204 229 242 242 238 251 251 247 255